Flag for Spain Weather past 2 weeks in Almería, Spain

Now
75 °F

Scattered clouds.


Feels Like: 75 °F
Forecast: 72 / 89 °F
Wind: 2 mph from East

Location: Almeria / Aeropuerto

Current Time: Jul 1, 2015 at 8:58:51 AM

Latest Report: Jul 1, 2015 at 8:00 AM


Visibility: 25 mi

Pressure: 29.93 "Hg

Humidity: 83%

Dew point: 69 °F

Location of AlmeríaLocation

Historic Weather in Almería — Graph

°F

Almería temperature yesterday

Maximum temperature yesterday: 86 °F (at 8:00 AM)
Minimum temperature yesterday: 76 °F (at 10:00 PM)
Average temperature yesterday: 83 °F

Past Weeks' High & Low Weather Summary

 TemperatureHumidityPressure
High103 °F (Jun 29, 2:00 PM)90% (Jun 23, 3:00 AM)30.19 "Hg (Jun 23, 3:00 AM)
Low60 °F (Jun 17, 6:00 AM)14% (Jun 29, 2:00 PM)29.82 "Hg (Jun 23, 7:00 PM)
Average77 °F52%30.05 "Hg
* Reported Jun 16 7:00 AM — Jul 1 7:00 AM, Almería, Weather by CustomWeather, © 2015

Note: Actual official high and low records may vary slightly from our data, if they occured in-between our weather recording intervals... More about our weather records

Advertising

Almería weather history for previous 24 hours

 ConditionsComfort  
Time TempWeatherWind HumidityBarometerVisibility
7:00 AM
Wed, Jul 1
73 °FMild.2 mph88%29.93 "HgN/A
6:00 AM74 °FMild.No wind87%29.92 "HgN/A
4:00 AM84 °FPleasantly warm.9 mph29%29.90 "HgN/A
3:00 AM84 °FPleasantly warm.7 mph29%29.91 "HgN/A
2:00 AM76 °FMild.5 mph77%29.95 "HgN/A
1:00 AM74 °FMild.5 mph75%29.96 "HgN/A
12:00 AM75 °FMild.No wind78%29.98 "HgN/A
10:00 PM
Tue, Jun 30
76 °FMild.No wind76%29.96 "HgN/A
9:00 PM78 °FWarm.5 mph76%29.95 "HgN/A
8:00 PM82 °FSunny.3 mph63%29.94 "Hg28 mi
6:00 PM85 °FWarm.10 mph54%29.95 "HgN/A
4:00 PM85 °FWarm.12 mph53%29.96 "HgN/A
3:00 PM85 °FWarm.12 mph52%29.97 "HgN/A
2:00 PM85 °FPassing clouds.12 mph52%29.98 "Hg28 mi
1:00 PM84 °FWarm.12 mph54%29.99 "HgN/A
12:00 PM84 °FWarm.12 mph57%29.99 "HgN/A
8:00 AM86 °FSunny.15 mph23%29.96 "Hg31 mi
Weather by CustomWeather, © 2015

See weather overviewHow to use our weather pages